TimeCST,TemperatureF,Dew PointF,Humidity,Sea Level PressureIn,VisibilityMPH,Wind Direction,Wind SpeedMPH,Gust SpeedMPH,PrecipitationIn,Events,Conditions,WindDirDegrees,DateUTC
12:53 AM,48.0,37.0,66,29.56,10.0,WSW,15.0,21.9,N/A,,Partly Cloudy,250,2011-12-30 06:53:00
1:53 AM,48.9,39.9,71,29.59,10.0,WNW,19.6,29.9,N/A,,Overcast,290,2011-12-30 07:53:00
2:53 AM,48.2,37.4,66,29.63,10.0,WNW,20.7,29.9,N/A,,Mostly Cloudy,290,2011-12-30 08:53:00
3:53 AM,48.0,37.9,68,29.65,10.0,West,21.9,31.1,N/A,,Overcast,280,2011-12-30 09:53:00
4:53 AM,46.9,37.9,71,29.66,10.0,West,19.6,29.9,N/A,,Clear,280,2011-12-30 10:53:00
5:53 AM,46.4,35.6,66,29.69,10.0,West,17.3,26.5,N/A,,Clear,280,2011-12-30 11:53:00
6:53 AM,44.1,32.0,63,29.70,10.0,WNW,10.4,-,N/A,,Partly Cloudy,290,2011-12-30 12:53:00
7:53 AM,44.1,30.0,58,29.72,10.0,West,11.5,20.7,N/A,,Partly Cloudy,280,2011-12-30 13:53:00
8:53 AM,46.0,28.9,51,29.75,10.0,West,13.8,19.6,N/A,,Partly Cloudy,280,2011-12-30 14:53:00
9:53 AM,48.2,28.0,46,29.77,10.0,WNW,19.6,-,N/A,,Clear,290,2011-12-30 15:53:00
10:53 AM,51.1,30.0,44,29.78,10.0,WNW,19.6,26.5,N/A,,Partly Cloudy,300,2011-12-30 16:53:00
11:53 AM,51.8,28.4,41,29.77,10.0,WNW,19.6,28.8,N/A,,Partly Cloudy,300,2011-12-30 17:53:00
12:53 PM,53.1,30.0,41,29.77,10.0,WNW,18.4,27.6,N/A,,Partly Cloudy,290,2011-12-30 18:53:00
1:53 PM,54.0,30.0,40,29.78,10.0,WNW,15.0,23.0,N/A,,Partly Cloudy,290,2011-12-30 19:53:00
2:53 PM,53.1,30.0,41,29.81,10.0,WNW,18.4,26.5,N/A,,Partly Cloudy,300,2011-12-30 20:53:00
3:53 PM,52.0,28.9,41,29.83,10.0,WNW,19.6,25.3,N/A,,Partly Cloudy,290,2011-12-30 21:53:00
4:53 PM,50.0,28.9,44,29.87,10.0,WNW,10.4,18.4,N/A,,Scattered Clouds,290,2011-12-30 22:53:00
5:53 PM,46.0,28.0,50,29.89,10.0,WNW,6.9,-,N/A,,Partly Cloudy,290,2011-12-30 23:53:00
6:53 PM,45.0,28.0,52,29.91,10.0,NW,3.5,-,N/A,,Clear,320,2011-12-31 00:53:00
7:53 PM,44.1,28.0,53,29.92,10.0,NNW,4.6,-,N/A,,Clear,340,2011-12-31 01:53:00
8:53 PM,42.1,28.0,58,29.94,10.0,SSW,3.5,-,N/A,,Partly Cloudy,210,2011-12-31 02:53:00
9:53 PM,39.0,28.0,65,29.93,10.0,Calm,Calm,-,N/A,,Scattered Clouds,0,2011-12-31 03:53:00
10:53 PM,37.9,27.0,65,29.93,10.0,South,4.6,-,N/A,,Mostly Cloudy,170,2011-12-31 04:53:00
11:53 PM,37.9,27.0,65,29.92,10.0,SE,4.6,-,N/A,,Scattered Clouds,140,2011-12-31 05:53:00